Regional Weather Roundup
Issued by NWS Charleston, SC

Current Version | Previous Version | Graphics & Text | Print | Product List | Glossary On
Versions: 1 2 3 4 5 6 7 8 9 10 11 12 13 14 15 16 17 18 19 20 21 22 23 24 25 26 27 28 29 30 31 32 33 34 35 36 37 38 39 40 41 42 43 44 45 46 47 48 49 50
000
ASUS42 KCHS 180210
RWRCHS
REGIONAL WEATHER ROUNDUP
NATIONAL WEATHER SERVICE CHARLESTON SC
900 PM EST WED DEC 17 2014

NOTE: "FAIR" INDICATES FEW OR NO CLOUDS BELOW 12,000 FEET WITH NO
SIGNIFICANT WEATHER AND/OR OBSTRUCTIONS TO VISIBILITY.

NOT ALL STATIONS ARE QUALITY CONTROLLED BY THE NATIONAL
WEATHER SERVICE. USE DATA WITH CAUTION...ESPECIALLY
DEWPOINT OBSERVATIONS.

SCZ027-030-031-034>040-042>050-180300-
...SOUTHEAST SOUTH CAROLINA...

CITY           SKY/WX    TMP DP  RH WIND       PRES   REMARKS
N CHARLESTON   PTCLDY    49  42  77 CALM      30.12S
WATERFRONT PRK   N/A     52 N/A N/A W6          N/A
MOUNT PLEASANT FAIR      45  45 100 CALM      30.12S
PINOPOLIS        N/A     54  45  71 CALM      30.04R
MONCKS CORNER  FAIR      45  41  87 CALM      30.11S
SUMMERVILLE    NOT AVBL
BEAUFORT MCAS  PTCLDY    48  43  82 CALM      30.12S
BEAUFORT ARPT  FAIR      46  46 100 S3        30.13R
HILTON HEAD IS PTCLDY    46  46 100 S3        30.14S
WALTERBORO     PTCLDY    43 N/A N/A CALM      30.12F
ALLENDALE      FAIR      43  41  93 CALM      30.11F

...SOUTHERN MIDLANDS AND PEE DEE...

CITY           SKY/WX    TMP DP  RH WIND       PRES   REMARKS
GEORGETOWN     NOT AVBL
KINGSTREE      NOT AVBL
ORANGEBURG     CLEAR     44  39  82 CALM      30.10F
BARNWELL         N/A     39  37  93 CALM      30.12R
AIKEN          FAIR      41  41 100 CALM      30.13F
MANNING        NOT AVBL
COLUMBIA       PTCLDY    46  39  76 CALM      30.10S
SUMTER         MOCLDY    45  38  75 CALM      30.09R
FLORENCE       MOCLDY    45  39  79 CALM      30.10R
MYRTLE BEACH   CLEAR     48  43  81 CALM      30.12S
N MYRTLE BEACH MOCLDY    46  43  89 W5        30.10R

$$

GAZ063-065-086>088-099>101-113>116-118-119-134>141-150-180300-
...SOUTHEAST GEORGIA...

CITY           SKY/WX    TMP DP  RH WIND       PRES   REMARKS
SAVANNAH ARPT  PTCLDY    48  40  73 CALM      30.14S
HUNTER AAF     PTCLDY    47  43  85 W1        30.12R
FORT STEWART   PTCLDY    44  41  88 CALM      30.13S
STATESBORO     CLEAR     39  39 100 CALM      30.13S
SYLVANIA       CLEAR     42  42  98 CALM      30.13F
CLAXTON        FAIR      41  41 100 CALM      30.14S

...CSRA...CENTRAL AND FAR SOUTHEAST GEORGIA...

CITY           SKY/WX    TMP DP  RH WIND       PRES   REMARKS
THOMSON        CLEAR     47  43  85 W5        30.18R
AUGUSTA-BUSH   CLEAR     41  38  89 CALM      30.12S
AUGUSTA-DANIEL CLEAR     53  40  61 W3        30.12R
SWAINSBORO     FAIR      43  43 100 CALM      30.14S
VIDALIA        CLEAR     45  41  87 CALM      30.14S
EASTMAN        FAIR      40  40 100 CALM      30.17S
HAZLEHURST     FAIR      47  46  96 CALM      30.14S
ALMA           CLEAR     43  40  89 CALM      30.15S
WAYCROSS       CLEAR     47  45  91 CALM      30.15S
JESUP          FAIR      45  43  93 CALM      30.15R
BAXLEY         FAIR      46  45  93 CALM      30.14S
BRUNSWICK      PTCLDY    48  45  87 CALM      30.15S
SAINT SIMONS   FAIR      50  45  83 W3        30.15S

$$

SCZ027-028-034-036>038-045-046-048>050-GAZ119-141-180300-
...LAKE AND SUPPLEMENTAL COASTAL OBSERVATIONS...

STATION/POSITION TIME  TEMP    WIND        PRES    WAVE   SWELL
                       AIR SEA DIR/SP/G            HT/PER HT/PER/DIR
                 (UTC) (F)     (DEG/KT/KT) (MB)    (FT/S) (FT/S/D)
UPR LAKE MARION  NOT AVBL
WINYAH BAY       0100   48     270/  1     1018.0S
LAKE MURRAY      0100   51     270/  2/  2 1019.0R
ACE BASIN NERRS  0100   46        CALM     1020.0S
FORT PULASKI     0200   52 57  200/  4/  5 1020.7S
SAPELO ISLAND    0100   53     280/  4     1020.0S

$$

ANZ835-935-AMZ111-154-330-350-352-354-370-450-454-472-180300-
...C-MAN AND BUOY OBSERVATIONS...

STATION/POSITION TIME  TEMP    WIND        PRES    WAVE   SWELL
                       AIR SEA DIR/SP/G            HT/PER HT/PER/DIR
                 (UTC) (F)     (DEG/KT/KT) (MB)    (FT/S) (FT/S/D)
BUOY 41004       0200   61 73  270/  6/ 12 1019.5S   2/11   2/11
BUOY 41008       0200   58 58  240/  6/  8 1020.5R   1/11   2/130/11
FOLLY BEACH CMAN 0100   53     240/  5/  6 1020.3R
CAPERS NEARSHORE 0100   56     240/ 10/ 12   N/A
FRIPP NEARSHORE  NOT AVBL


STATION/POSITION TIME  TEMP    WIND        PRES    WAVE   SWELL
                       AIR SEA DIR/SP/G            HT/PER HT/PER/DIR
                 (UTC) (F)     (DEG/KT/KT) (MB)    (FT/S) (FT/S/D)
5E ST. MARYS GA  0200      60                N/A     1/11
FRYING PAN BUOY  0200   60 65  260/ 10/ 12 1019.7S   2/ 5   2/180/ 5
BUOY 41025       0200   58                 1018.0S   3/ 7
CAPE LOOKOUT NC  0100   56     250/ 11/ 13 1018.1R
BUOY 41002       0140   68 73  290/  6/ 10 1019.6R   5/ 7
BUOY 41010       0200   70 76  280/ 10/ 12 1020.8R   3/ 5   2/270/ 5
ST AUGUSTINE FL  0200   58     290/  3/  4 1021.9R


$$


USA.gov is the U.S. government's official web portal to all federal, state and local government web resources and services.